DELTA 1 DEB, 5971

Orbit data source: Space-Track

DELTA 1 DEB, 5971 is space debris in SSO originally from a launch on Thu, 26 Jan 1967 UTC launched from the Air Force Western Test Range (AFWTR). Debris objects in space refer to the collection of defunct objects orbiting the Earth. Examples of debris include non-operational satellites, rocket bodies, and fragments generated from explosions, collisions, or faulty payload assembly.

Loading next visibility...
Identifier
5971, 1967-006E
Orbit
SSO
Country
Flag of USUS
Related business
Manufacturer
Unknown
Mission
Spacecraft
Bus & Motor
Unknown
Mass
Unknown
Launch date (UTC)
1967-01-26 (59 years ago)
Launch vehicle
Unknown
Launch site
Air Force Western Test Range (AFWTR)
Object type
Payload
Rocket body
Debris
Shape & HBR
Unknown shape, 0.1 m
Radar Cross Section
Small (<0.1 m²)

Expand to show TLE details & history
Last TLE update: 2 days ago

TLE from 2 days ago
0 DELTA 1 DEB
1 05971U 67006E   25288.27812580 -.00000006  00000-0  19781-3 0  9995
2 05971 101.9222 216.8738 0113096  96.4281  57.2414 12.73473240729910
Epoch: 2025-10-15T06:40Z
TLE epoch observation values (Epoch: 2025-10-15T06:40:30.069Z)
Latitude
24.67928°
Longitude
-81.76629°
Altitude
1,323.825 km
Speed
7.219 km/s
True Right ascension
02h 49m 39s
True Declination
24° 33' 31"
Sunlit
Object was in full shadow at epoch
Visualization orbit readout
Latitude
Unknown
Longitude
Unknown
Altitude
Unknown
Speed
Unknown
Apparent Right ascension
Unknown
Apparent Declination
Unknown
Sunlit
N/A
Visualization observer readout
Local Sidereal Time
15:18:10
Azimuth
Unknown
Elevation
Unknown
Doppler factor
Unknown
Orbital elements
Apogee altitude
1,452.925 km
Perigee altitude
1,277.774 km
Semi-major axis
7,743.487 km
Eccentricity
0.01131
Inclination
101.9222°
RAAN
216.8738°
Arg. of periapsis
96.4281°
True anomaly
58.3396°
Mean anomaly
57.2414°
Eccentric anomaly
57.78966°
Mean motion
3.18521 °/min
Orbital period
113.02 mins
BSTAR
0.00019781
Loading maneuver chart data...
Computing Atmospheric mass density...
Loading historical data...
Loading historical data...
Loading historical data...
Loading historical data...
Loading historical data...
Loading historical data...
Loading historical data...
Other satellites on launch #6 in the year 1967 (1967-01-26 UTC)

Documentation

Showing up to 5 results
|